Location: Gradaro
(45.0833°N, 10.8833°E)
Time: 00:43:36
(UTC+00:00)

Cosmos 2263 Rocket - Pass Details

Date: 25 April 2021
Orbit: 824 x 848 km, 71.0° (Epoch: 15 May)

Event Time Altitude Azimuth Distance (km) Brightness Sun altitude
Exits shadow 23:05:16 - 268° (W) 3,244 5.3 -31.4°
Reaches altitude 10° 23:08:47 10° 293° (WNW) 2,430 4.8 -31.4°
Maximum altitude 23:11:21 13° 321° (NW) 2,214 4.9 -31.4°
Drops below altitude 10° 23:13:56 10° 349° (N) 2,439 5.4 -31.4°
Sets 23:17:52 0° 16° (NNE) 3,381 6.4 -31.4°
